Regional Weather Roundup
Issued by NWS

Home | Current Version | Previous Version | Text Only | Print | Product List | Glossary On
Versions: 1 2 3 4 5 6 7 8 9 10 11 12 13 14 15 16 17 18 19 20 21 22 23 24 25 26 27 28 29 30 31 32 33 34 35 36 37 38 39 40 41 42 43 44 45 46 47 48 49 50
000
ASUS43 KDMX 272107
RWRIA

WEATHER ROUNDUP FOR IOWA
NATIONAL WEATHER SERVICE DES MOINES IA
400 PM CDT WED AUG 27 2014

NOTE: "FAIR" INDICATES FEW OR NO CLOUDS BELOW 12,000 FEET WITH NO
SIGNIFICANT WEATHER AND/OR OBSTRUCTIONS TO VISIBILITY.

* - THESE STATIONS ARE NOT NWS STATIONS...THUS NOT UNDER NWS
QUALITY CONTROL.  THEY ALSO DO NOT REPORT WEATHER SUCH
AS PRECIPITATION OR FOG.

IAZ001>003-012>014-020>022-031>034-043>046-272200-
   NORTHWEST IOWA

CITY           SKY/WX    TMP DP  RH WIND       PRES   REMARKS
CARROLL *      CLOUDY    72  68  88 NE7       30.12F
DENISON *      CLOUDY    70  70 100 NE5       30.09F
LE MARS *      CLOUDY    73  68  83 S10       30.12F
ORANGE CITY *  CLOUDY    73  64  73 S8        30.13S
SHELDON *      SUNNY     72  64  78 SE10      30.13R
SIOUX CITY     CLOUDY    71  68  90 SE6       30.10F
SPENCER        CLOUDY    74  63  68 E12       30.14F
STORM LAKE *   CLOUDY    70  70 100 SE9       30.14F
$$

IAZ055>058-069>071-079>083-090>094-272200-
   SOUTHWEST IOWA

CITY           SKY/WX    TMP DP  RH WIND       PRES   REMARKS
ATLANTIC *     DRIZZLE   70  70 100 NE8       30.07F
AUDUBON *      PTSUNNY   73  70  88 NE7       30.11F
CLARINDA *       N/A     75  72  88 SE5       30.10F
COUNCIL BLFS * SUNNY     75  73  94 S8        30.05F
CRESTON *      MOSUNNY   72  70  94 E9        30.10F
HARLAN  *      CLOUDY    72  70  94 NE6       30.11F
LAMONI         CLOUDY    75  69  81 E6        30.10F
RED OAK *      CLOUDY    72  70  94 S10       30.07S
SHENANDOAH *   PTSUNNY   75  72  88 SW6       30.08F
$$

IAZ047>049-059>061-072>074-084-272200-
   CENTRAL IOWA

CITY           SKY/WX    TMP DP  RH WIND       PRES   REMARKS
AMES           CLOUDY    74  67  78 E6        30.12F
ANKENY *       PTSUNNY   75  68  78 NE8       30.11F
CHARITON *     CLOUDY    75  70  83 NE8       30.11F
DES MOINES     CLOUDY    76  67  73 E8        30.10F
GRINNELL*      CLOUDY    75  64  69 E3        30.13F
KNOXVILLE *    MOSUNNY   73  66  78 E3        30.11S
MARSHALLTOWN   PTSUNNY   75  64  68 E7        30.13F
PELLA *        CLOUDY    77  68  73 CALM      30.12F
PERRY *        PTSUNNY   73  68  83 NE5       30.11F
$$

IAZ004>006-015-016-023>025-035-036-272200-
   NORTH CENTRAL IOWA

CITY           SKY/WX    TMP DP  RH WIND       PRES   REMARKS
ALGONA *       SUNNY     73  64  73 SE5       30.15F
CLARION *      SUNNY     73  63  68 E6        30.14F
ESTHERVILLE    CLOUDY    71  62  73 E9        30.15F
FORT DODGE *   CLOUDY    73  64  73 SE8       30.14F
MASON CITY     CLOUDY    74  58  57 SE8       30.17F
FOREST CITY *  SUNNY     73  59  60 E7        30.16S
IOWA FALLS *   PTSUNNY   72  63  73 CALM      30.16F
$$

IAZ007>011-017>019-026>030-037>042-050>054-066-272200-
   NORTHEAST IOWA

CITY           SKY/WX    TMP DP  RH WIND       PRES   REMARKS
CEDAR RAPIDS   CLOUDY    76  63  64 VRB5      30.12F
CHARLES CITY * MOSUNNY   73  57  56 E5        30.17S
CLINTON *      CLOUDY    73  63  68 N6        30.16F
DECORAH *        N/A     73  59  60 CALM      30.16
DUBUQUE        CLOUDY    74  57  55 E3        30.16F
MONTICELLO *   PTSUNNY   75  61  60 NE5       30.13F
OELWEIN *      SUNNY     73  61  64 E5        30.16F
WATERLOO       CLOUDY    75  57  53 E6        30.13F
$$

IAZ064-065-067-068-078-272200-
   EAST CENTRAL IOWA

CITY           SKY/WX    TMP DP  RH WIND       PRES   REMARKS
DAVENPORT      CLOUDY    75  64  68 NE6       30.13F
IOWA CITY      CLOUDY    75  67  76 N10       30.12F
MT. PLEASANT * CLOUDY    77  68  73 E3        30.12F
MUSCATINE *    SUNNY     77  66  69 NE10      30.10F
QUAD CITIES    CLOUDY    78  63  59 N8        30.11F HX  80
$$

IAZ062-063-075>077-085>089-095>099-272200-
   SOUTHEAST IOWA

CITY           SKY/WX    TMP DP  RH WIND       PRES   REMARKS
BURLINGTON     LGT RAIN  78  70  76 N7        30.10F HX  80
FAIRFIELD *    MOSUNNY   77  70  78 NE8       30.11F
FORT MADISON * SUNNY     79  72  78 E3        30.11F HX  82
KEOKUK *       SUNNY     79  72  78 E6        30.09F HX  82
OSKALOOSA *      N/A     75  68  78 NE5       30.12F
CENTERVILLE *  PTSUNNY   77  72  83 CALM      30.12F
OTTUMWA        CLOUDY    76  68  76 NE6       30.11F
WASHINGTON *   SUNNY     77  68  73 NE5       30.12S
$$

ABBREVIATIONS USED IN REMARKS
   TC - TEMPERATURES IN CELSIUS
  WCI - WIND CHILL INDEX
   HX - HEAT INDEX
  VSB - VISIBILITY
$$




USA.gov is the U.S. government's official web portal to all federal, state and local government web resources and services.